Charter Quote
Worldwide +1-877-727-2538 Call
Select Language Lang
SAFETY RELIABILITY EXPERIENCE

Private Jet Charter Services - Diwopu (ZWWW)

Paramount Business Jets offers private jet charter flights and luxury airliner charters to and from Diwopu.

AIRPORT INFORMATION
ICAOZWWW
LOCATIONUrumqi, China
FACILITY TYPEAIRPORT

At Paramount Business Jets you can hire chartered private jets to and from Diwopu with as little as 4 hours of notice. All flights booked via Paramount Business Jets are operated by certified direct air carriers that meet and exceed the FAA part 135 and 121 protocol or a foreign equivalent safety authority. Furthermore, Paramount Business Jets subscribes to ARGUS for their third party safety checks of operators, aircraft, and crews prior each and every flight to and from Diwopu and worldwide.

  • Quote a trip using Diwopu or call us 24/7 - 365 days a year at +1-877-727-2538.
Questions? Call +1-877-727-2538

METAR Weather Data at Diwopu, ZWWW

STATIONZWWW
OBSERVEDWed Sep 18, 22:00 UTC
NOWWed Sep 18, 22:21 UTC
AGE21 min ago
WINDvaries at 2 mph
VISIBILITY11 miles
METARZWWW 182200Z VRB01MPS 7000 NSC 15/05 Q1019 NOSIG

Call us on +1-877-727-2538 (24 Hours) to Hire a Private Jet or Get a Quick Quote.

Find Airports Near any Location

Processing
...